COSMOS 1325

导读 | 星芒AI

COSMOS 1325 是一颗由苏联于1981年12月16日发射的军用侦察卫星,搭载于联盟号火箭,运行在近地轨道。该卫星属于“宇宙”系列,主要用于电子侦察和信号情报收集,支持苏联的军事监视和战略情报需求。COSMOS 1325 在轨运行一段时间后失联,最终坠入大气层销毁。这类卫星在冷战期间对苏联的全球战略部署和情报获取起到了重要作用。

基本信息
目录编号:
12980
目录名称:
COSMOS 1325
国际标识:
1981-116F
轨道中心:
EARTH
卫星名称:
COSMOS 1325
卫星全名:
--
卫星状态:
在轨 (已飞行16123 天)
发射日期:
1981-11-28 UTC
国别 :
俄罗斯(独联体) (CIS)
星等 :
--
轨道信息
数据来源 国际轨道数据 AOE轨道数据
星历时间 2026-01-19T04:27:15+0800
12小时前
查看轨道信息
2026-01-17T14:00:00+0800
2天前
查看轨道信息
半长轴 7926.841km 7926.828km
偏心率 0.008495 0.0084312
轨道倾角 73.981° 73.982°
近地点辐角 39.675° 42.729°
升交点赤经 170.159° 172.216°
平近点角 114.306° 217.994°
近地点 1481.365km 1481.858km
远地点 1616.043km 1615.524km
周期 117.060分钟 117.060分钟
每日圈数 12.301345 12.301375
详细信息
使用方式:
暂无
2D轨道图
3D轨道图
轨道高度分析图
轨道倾角分析图
轨道综合分析图
查看轨道综合分析图